STARLINK-36347

Last updated on Sun Apr 12 2026 00:02:09 GMT+0000 (Coordinated Universal Time)

1 68521U 26068P 26101.50002315 .00070216 00000+0 35699-3 0 9990 2 68521 53.1599 344.7842 0000845 86.1081 90.8577 15.80836772 3083
UTC large
Height (km)
Speed (km/s)
/
Latitude / Longitude
Inclination (degrees)
Orbital Period (minutes)
Azimuth
Elevation
Range (km)
Doppler Factor

Next 0 passes for location: London (51.5072 / 0.1276)

Sorry there are no passes over London.
STARLINK-36347